Location: PSU-Greenbush Astrophysical Observatory
(37.5140°N, 94.9880°W)
Time: 19:46:00
(UTC-06:00)

Transit 2A - Pass Details

Date: 01 February 2020
Orbit: 599 x 959 km, 66.7° (Epoch: 25 February)

Event Time Altitude Azimuth Distance (km) Brightness Sun altitude
Rises 19:41:06 0° 259° (W) 2,865 10.4 -23.5°
Reaches altitude 10° 19:44:54 10° 293° (WNW) 1,943 8.9 -24.2°
Maximum altitude 19:46:25 12° 314° (NW) 1,840 8.5 -24.5°
Drops below altitude 10° 19:47:55 10° 334° (NNW) 1,945 8.4 -24.8°
Enters shadow 19:50:14 - 358° (N) 2,427 8.6 -25.3°
Sets 19:51:45 0° 8° (N) 2,874 - -25.6°
